Vienna Schwechat, Austria

9:11 AM CEST on October 22, 2017 (GMT +0200)
Schwechat

Weather History for LOWW - October, 2013

Change the Weather History Date:

Tuesday, October 22, 2013

  Actual Average Record
Temperature  
Mean Temperature 54 °F -  
Max Temperature 60 °F 48 °F 64 °F (2006)
Min Temperature 47 °F 37 °F 23 °F (1997)
Degree Days  
Heating Degree Days 12    
Growing Degree Days 4 (Base 50)    
Moisture  
Dew Point 54 °F    
Average Humidity 96    
Maximum Humidity 100    
Minimum Humidity 82    
Precipitation  
Precipitation 0.00 in - - ()
Sea Level Pressure  
Sea Level Pressure 30.08 in    
Wind  
Wind Speed 5 mph ()    
Max Wind Speed 10 mph    
Max Gust Speed -    
Visibility 3.1 miles    
Events Fog    
Averages and records for this station are not official NWS values.
T = Trace of Precipitation, MM = Missing Value Source: Averaged Metar Reports

Daily Weather History Graph

Daily Weather History Graph

Search for Another Location

Airport or City:

Trip Planner

Search our weather history database for the weather conditions in past years. The results will help you decide how hot, cold, wet, or windy it might be!

Date:

Astronomy

Oct. 22, 2013 Rise Set
Actual Time 7:23 AM CEST 5:51 PM CEST
Civil Twilight 6:51 AM CEST 6:23 PM CEST
Nautical Twilight 6:15 AM CEST 6:59 PM CEST
Astronomical Twilight 5:39 AM CEST 7:35 PM CEST
Moon 8:05 PM CEST 10:48 AM CEST
Length of Visible Light 11h 31m
Length of Day
10h 28m
Waning Gibbous, 88% of the Moon is Illuminated
Oct 22
Waning Gibbous
Oct 27
Last Quarter
Nov 3
New
Nov 10
First Quarter
Nov 17
Full

Hourly Weather History & Observations

Time (CEST) Temp. Dew Point Humidity Pressure Visibility Wind Dir Wind Speed Gust Speed Precip Events Conditions
12:20 AM 53.6 °F 51.8 °F 94% 30.09 in - SSE 5.8 mph - N/A   Clear
12:50 AM 53.6 °F 51.8 °F 94% 30.09 in - SE 6.9 mph - N/A   Clear
1:20 AM 50.0 °F 50.0 °F 100% 30.09 in - South 5.8 mph - N/A   Clear
1:50 AM 50.0 °F 50.0 °F 100% 30.09 in - South 4.6 mph - N/A   Clear
2:00 AM 50 °F 49 °F 97% 30.12 in 6 mi South 4.5 mph - -  
2:20 AM 51.8 °F 50.0 °F 94% 30.09 in 5.0 mi South 4.6 mph - N/A   Partly Cloudy
2:50 AM 50.0 °F 50.0 °F 100% 30.09 in 4.3 mi South 4.6 mph - N/A   Partly Cloudy
3:20 AM 50.0 °F 50.0 °F 100% 30.09 in 1.7 mi Variable 2.3 mph - N/A Fog Patches of Fog
3:50 AM 50.0 °F 48.2 °F 94% 30.09 in 0.3 mi Variable 2.3 mph - N/A Fog Fog
4:20 AM 48.2 °F 48.2 °F 100% 30.09 in 0.2 mi Variable 1.2 mph - N/A Fog Fog
4:50 AM 48.2 °F 48.2 °F 100% 30.09 in 0.2 mi SE 4.6 mph - N/A Fog Fog
5:00 AM 48 °F 48 °F 100% 30.11 in 0 mi SE 4.5 mph - - Fog Partial Fog
5:20 AM 48.2 °F 48.2 °F 100% 30.09 in 2.5 mi Variable 2.3 mph - N/A Fog Patches of Fog
5:50 AM 51.8 °F 51.8 °F 100% 30.09 in 1.4 mi SE 3.5 mph - N/A Fog Patches of Fog
6:20 AM 51.8 °F 51.8 °F 100% 30.09 in 0.2 mi SSE 5.8 mph - N/A Fog Fog
6:50 AM 53.6 °F 53.6 °F 100% 30.09 in 0.2 mi SSE 4.6 mph - N/A Fog Fog
7:20 AM 53.6 °F 53.6 °F 100% 30.09 in 0.2 mi South 3.5 mph - N/A Fog Fog
7:50 AM 53.6 °F 53.6 °F 100% 30.09 in 0.1 mi SSE 3.5 mph - N/A Fog Fog
8:00 AM 53 °F 53 °F 99% 30.12 in 0 mi SSE 4.5 mph - - Fog Partial Fog
8:20 AM 53.6 °F 53.6 °F 100% 30.12 in 0.2 mi Variable 2.3 mph - N/A Fog Light Drizzle
8:50 AM 53.6 °F 53.6 °F 100% 30.12 in 0.2 mi SE 3.5 mph - N/A Fog Light Drizzle
9:20 AM 53.6 °F 53.6 °F 100% 30.12 in 0.3 mi SE 5.8 mph - N/A Fog Fog
9:50 AM 53.6 °F 53.6 °F 100% 30.12 in 0.4 mi SSE 5.8 mph - N/A Fog Fog
10:20 AM 53.6 °F 53.6 °F 100% 30.09 in 0.3 mi SSE 6.9 mph - N/A Fog Fog
10:50 AM 53.6 °F 53.6 °F 100% 30.12 in 0.5 mi South 5.8 mph - N/A Fog Fog
11:00 AM 54 °F 54 °F 100% 30.13 in 0 mi South 6.7 mph - - Fog Partial Fog
11:20 AM 55.4 °F 55.4 °F 100% 30.12 in 0.9 mi SSE 5.8 mph - N/A   Mostly Cloudy
11:50 AM 57.2 °F 57.2 °F 100% 30.12 in 1.6 mi SE 9.2 mph - N/A   Mostly Cloudy
12:20 PM 57.2 °F 57.2 °F 100% 30.09 in 2.8 mi SSE 8.1 mph - N/A   Mostly Cloudy
12:50 PM 57.2 °F 57.2 °F 100% 30.09 in 4.3 mi SE 5.8 mph - N/A   Mostly Cloudy
1:20 PM 59.0 °F 57.2 °F 94% 30.09 in 6.2 mi ESE 8.1 mph - N/A   Mostly Cloudy
1:50 PM 59.0 °F 57.2 °F 94% 30.09 in 5.6 mi SE 9.2 mph - N/A   Mostly Cloudy
2:00 PM 58 °F 57 °F 97% 30.10 in 6 mi SE 8.9 mph - -   Partly Cloudy
2:20 PM 57.2 °F 57.2 °F 100% 30.06 in 5.0 mi SSE 10.4 mph - N/A   Mostly Cloudy
2:50 PM 59.0 °F 55.4 °F 88% 30.06 in 6.2 mi ESE 9.2 mph - N/A   Mostly Cloudy
3:20 PM 60.8 °F 55.4 °F 82% 30.06 in 6.2 mi SE 10.4 mph - N/A   Mostly Cloudy
3:50 PM 60.8 °F 55.4 °F 82% 30.06 in 6.2 mi ESE 8.1 mph - N/A   Mostly Cloudy
4:20 PM 59.0 °F 55.4 °F 88% 30.06 in 5.6 mi ESE 9.2 mph - N/A   Mostly Cloudy
4:50 PM 59.0 °F 55.4 °F 88% 30.06 in 5.0 mi ESE 9.2 mph - N/A   Mostly Cloudy
5:00 PM 58 °F 56 °F 90% 30.07 in 5 mi ESE 8.9 mph - -   Scattered Clouds
5:20 PM 59.0 °F 55.4 °F 88% 30.06 in 3.7 mi ESE 5.8 mph - N/A   Mostly Cloudy
5:50 PM 57.2 °F 55.4 °F 94% 30.06 in 3.1 mi ESE 3.5 mph - N/A   Mostly Cloudy
6:20 PM 57.2 °F 55.4 °F 94% 30.06 in 3.7 mi East 4.6 mph - N/A   Mostly Cloudy
6:50 PM 57.2 °F 55.4 °F 94% 30.04 in 3.7 mi East 6.9 mph - N/A   Mostly Cloudy
7:20 PM 57.2 °F 55.4 °F 94% 30.04 in 3.7 mi East 5.8 mph - N/A   Mostly Cloudy
7:50 PM 55.4 °F 53.6 °F 94% 30.04 in 3.7 mi SE 4.6 mph - N/A   Mostly Cloudy
8:00 PM 56 °F 54 °F 92% 30.05 in 4 mi SE 4.5 mph - -   Mostly Cloudy
8:20 PM 57.2 °F 55.4 °F 94% 30.04 in 3.7 mi ESE 5.8 mph - N/A   Scattered Clouds
8:50 PM 57.2 °F 55.4 °F 94% 30.04 in 5.0 mi SE 4.6 mph - N/A   Scattered Clouds
9:20 PM 57.2 °F 53.6 °F 88% 30.04 in 5.0 mi SSE 4.6 mph - N/A   Scattered Clouds
9:50 PM 57.2 °F 55.4 °F 94% 30.04 in 4.3 mi SE 6.9 mph - N/A   Scattered Clouds
10:20 PM 57.2 °F 55.4 °F 94% 30.04 in 5.0 mi ESE 9.2 mph - N/A   Scattered Clouds
10:50 PM 57.2 °F 55.4 °F 94% 30.04 in 5.0 mi ESE 8.1 mph - N/A   Scattered Clouds
11:00 PM 58 °F 55 °F 88% 30.04 in 5 mi ESE 8.9 mph - -   Partly Cloudy
11:20 PM 57.2 °F 55.4 °F 94% 30.01 in 5.0 mi East 5.8 mph - N/A   Scattered Clouds
11:50 PM 57.2 °F 55.4 °F 94% 30.01 in 5.0 mi ESE 8.1 mph - N/A   Mostly Cloudy